sat.trackr.live / text

‹ back to catalog

FLOCK 4Q-9

NORAD 58322 · 2023-174BU

PAYLOAD ACTIVE UNKNOWN

§ Identity

Operator
Country
US
Launch date
2023-11-11
Launch site
AFWTR
Launch vehicle
Mass (kg)
RCS (m²)

Purposes: earth_obs

External: N2YO · Heavens-Above · Gunter

§ Orbital elements

Epoch: 2026-09-19T22:03:35.125056Z

Period
92.63 min
Inclination
97.3808°
Eccentricity
0.0006815
Mean motion
15.54562458 rev/d
Perigee alt
398.8 km
Apogee alt
408.0 km
Semi-major
6,781.6 km
B*
2.5777e-4
RAAN
354.0723°
Arg perigee
147.3856°
Mean anomaly
212.7820°
Rev number
16,028

§ Raw data

FLOCK 4Q-91 58322U 23174BU  26262.91915654  .00016934  00000+0  25777-3 0  99982 58322  97.3808 354.0723 0006815 147.3856 212.7820 15.54562458160289

JSON: /api/v1/satellites/58322 · /tle

For live sub-satellite position, see the globe view (requires WebGL).

§ Visibility from observer

Set your observer location to see the next 7 days of passes ≥ 10°. The values pass through the URL so the page stays shareable.

No JS? Fill the form by hand. The geolocation button needs JavaScript.